Flag for Canada Weather past 2 weeks in Pickering, Ontario, Canada

Now
9 °F

Light snow. Overcast.


Feels Like: -6 °F
Forecast: -1 / 9 °F
Wind: 10 mph from East

Location: Toronto Buttonville

Current Time: Feb 1, 2015 at 8:19:21 PM

Latest Report: Feb 1, 2015 at 7:00 PM


Visibility: 6 mi

Pressure: 30.11 "Hg

Humidity: 56%

Dew point: -4 °F

Location of PickeringLocation

Historic Weather in Pickering — Graph

°F

Pickering temperature yesterday

Maximum temperature yesterday: 27 °F (at 10:00 PM)
Minimum temperature yesterday: -2 °F (at 3:00 AM)
Average temperature yesterday: 14 °F

Past Weeks' High & Low Weather Summary

 TemperatureHumidityPressure
High41 °F (Jan 18, 7:00 AM)100% (Jan 18, 10:00 AM)30.41 "Hg (Jan 18, 10:00 AM)
Low-2 °F (Jan 31, 3:00 AM)26% (Jan 28, 4:00 PM)29.47 "Hg (Jan 24, 3:00 PM)
Average20 °F70%30.04 "Hg
* Reported Jan 17 7:00 PM — Feb 1 7:00 PM, Pickering, Weather by CustomWeather, © 2014

Note: Actual official high and low records may vary slightly from our data, if they occured in-between our weather recording intervals... More about our weather records

Advertising

Pickering weather history for previous 24 hours

 ConditionsComfort  
Time TempWeatherWind HumidityBarometerVisibility
7:00 PM
Feb 1
9 °FLight snow. Overcast.10 mph56%30.11 "Hg6 mi
6:00 PM9 °FLight snow. Overcast.9 mph61%30.14 "Hg3 mi
5:00 PM10 °FOvercast.8 mph47%30.17 "Hg15 mi
4:00 PM12 °FOvercast.8 mph44%30.18 "Hg15 mi
3:00 PM12 °FOvercast.8 mph52%30.20 "Hg15 mi
2:00 PM12 °FOvercast.6 mph48%30.22 "Hg15 mi
1:00 PM10 °FOvercast.8 mph52%30.24 "Hg15 mi
12:00 PM10 °FOvercast.8 mph52%30.28 "Hg15 mi
11:00 AM9 °FMostly cloudy.9 mph51%30.31 "Hg15 mi
10:00 AM7 °FMore clouds than sun.9 mph51%30.31 "Hg15 mi
9:00 AM7 °FOvercast.14 mph78%30.29 "Hg15 mi
8:00 AM9 °FOvercast.10 mph78%30.29 "Hg15 mi
7:00 AM10 °FOvercast.12 mph79%30.28 "Hg15 mi
6:00 AM16 °FOvercast.9 mph86%30.25 "Hg12 mi
5:00 AM21 °FSnow flurries. Overcast.7 mph80%30.23 "Hg12 mi
4:00 AM23 °FSnow flurries. Overcast.10 mph80%30.20 "Hg8 mi
3:00 AM23 °FSnow flurries. Overcast.8 mph86%30.19 "Hg8 mi
2:00 AM27 °FSnow flurries. Overcast.7 mph80%30.17 "Hg8 mi
1:00 AM27 °FSnow flurries. Overcast.5 mph86%30.16 "Hg7 mi
12:00 AM27 °FSnow flurries. Overcast.7 mph86%30.16 "Hg7 mi
11:00 PM
Jan 31
27 °FSnow flurries. Overcast.9 mph80%30.16 "Hg8 mi
10:00 PM27 °FSnow flurries. Overcast.8 mph80%30.16 "Hg7 mi
9:00 PM25 °FSnow flurries. Overcast.7 mph80%30.18 "Hg8 mi
8:00 PM25 °FSnow flurries. Overcast.8 mph80%30.19 "Hg10 mi
Weather by CustomWeather, © 2014

See weather overviewHow to use our weather pages